Alexandria, Egypt

9:50 PM EET on November 23, 2017 (GMT +0200)
Alexandria

Weather History for HEAX - March, 2014

Change the Weather History Date:

Sunday, March 16, 2014

  Actual Average Record
Temperature  
Mean Temperature 66 °F -  
Max Temperature 80 °F 70 °F 80 °F (2014)
Min Temperature 51 °F 54 °F 48 °F (2006)
Growing Degree Days 16 (Base 50)    
Moisture  
Dew Point 45 °F    
Average Humidity 51    
Maximum Humidity 77    
Minimum Humidity 17    
Precipitation  
Precipitation 0.00 in 0.01 in - ()
Sea Level Pressure  
Sea Level Pressure 29.91 in    
Wind  
Wind Speed 7 mph ()    
Max Wind Speed 16 mph    
Max Gust Speed -    
Visibility 3.9 miles    
Events      
Averages and records for this station are not official NWS values.
T = Trace of Precipitation, MM = Missing Value Source: Averaged Metar Reports

Daily Weather History Graph

Daily Weather History Graph

Search for Another Location

Airport or City:

Trip Planner

Search our weather history database for the weather conditions in past years. The results will help you decide how hot, cold, wet, or windy it might be!

Date:

Astronomy

Mar. 16, 2014 Rise Set
Actual Time 6:09 AM EET 6:08 PM EET
Civil Twilight 5:45 AM EET 6:33 PM EET
Nautical Twilight 5:17 AM EET 7:01 PM EET
Astronomical Twilight 4:48 AM EET 7:29 PM EET
Moon 6:04 PM EET (3/16) 5:42 AM EET (3/16)
Length of Visible Light 12h 47m
Length of Day
11h 59m
Full, 100% of the Moon is Illuminated
Mar 16
Full
Mar 16
Full
Mar 24
Last Quarter
Mar 30
New
Apr 7
First Quarter

Hourly Weather History & Observations

Time (EET) Temp. Dew Point Humidity Pressure Visibility Wind Dir Wind Speed Gust Speed Precip Events Conditions
12:00 AM 55.4 °F 46.4 °F 72% 30.04 in - East 6.9 mph - N/A   Clear
1:00 AM 53.6 °F 46.4 °F 77% 30.04 in - ESE 4.6 mph - N/A   Clear
2:00 AM 54 °F 47 °F 69% 30.01 in 6 mi ESE 6.9 mph - -  
2:00 AM 53.6 °F 46.4 °F 77% 30.01 in - ESE 6.9 mph - N/A   Clear
3:00 AM 53.6 °F 46.4 °F 77% 30.01 in - ESE 5.8 mph - N/A   Clear
4:00 AM 55.4 °F 46.4 °F 72% 29.98 in - ESE 8.1 mph - N/A   Clear
5:00 AM 53 °F 44 °F 64% 29.97 in 6 mi ESE 4.6 mph - -  
5:00 AM 51.8 °F 44.6 °F 76% 29.95 in - ESE 4.6 mph - N/A   Clear
6:00 AM 51.8 °F 44.6 °F 76% 29.98 in - SSE 5.8 mph - N/A   Clear
7:00 AM 51.8 °F 42.8 °F 71% 29.98 in 3.7 mi ESE 6.9 mph - N/A   Unknown
8:00 AM 56 °F 44 °F 54% 29.95 in 4 mi SE 9.2 mph - -   Haze
8:00 AM 55.4 °F 44.6 °F 67% 29.95 in 3.7 mi SE 9.2 mph - N/A   Unknown
9:00 AM 59.0 °F 44.6 °F 59% 29.98 in 3.7 mi SSE 8.1 mph - N/A   Unknown
10:00 AM 64.4 °F 46.4 °F 52% 29.95 in 3.7 mi SE 8.1 mph - N/A   Unknown
11:00 AM 69 °F 44 °F 30% 29.94 in 4 mi SSE 11.5 mph - -   Blowing Sand
11:00 AM 68.0 °F 44.6 °F 43% 29.92 in 3.7 mi SSE 11.5 mph - N/A   Unknown
12:00 PM 71.6 °F 41.0 °F 33% 29.92 in 3.7 mi SSE 16.1 mph - N/A   Unknown
1:00 PM 75.2 °F 44.6 °F 34% 29.86 in 3.7 mi SSE 13.8 mph - N/A   Unknown
2:00 PM 80 °F 43 °F 17% 29.86 in 4 mi South 11.5 mph - -   Blowing Sand
2:00 PM 78.8 °F 42.8 °F 28% 29.86 in 3.7 mi South 11.5 mph - N/A   Unknown
3:00 PM 78.8 °F 46.4 °F 32% 29.83 in 3.7 mi SSE 8.1 mph - N/A   Unknown
4:00 PM 77.0 °F 46.4 °F 34% 29.80 in 3.7 mi SE 9.2 mph - N/A   Unknown
5:00 PM 75 °F 46 °F 25% 29.82 in 2 mi SE 6.9 mph - -   Widespread Dust
5:00 PM 75.2 °F 46.4 °F 36% 29.80 in 1.9 mi SE 6.9 mph - N/A   Unknown
6:00 PM 73.4 °F 48.2 °F 41% 29.80 in 1.9 mi SE 6.9 mph - N/A   Unknown
7:00 PM 71.6 °F 46.4 °F 41% 29.80 in 3.7 mi SE 6.9 mph - N/A   Unknown
8:00 PM 71 °F 44 °F 27% 29.82 in 6 mi SSE 6.9 mph - -   Clear
8:00 PM 71.6 °F 44.6 °F 38% 29.80 in - SSE 6.9 mph - N/A   Clear
9:00 PM 69.8 °F 44.6 °F 40% 29.83 in - SE 4.6 mph - N/A   Clear
10:00 PM 68.0 °F 44.6 °F 43% 29.83 in - Calm Calm - N/A   Clear
11:00 PM 65 °F 51 °F 51% 29.86 in 6 mi South 3.5 mph - -  
11:00 PM 64.4 °F 51.8 °F 64% 29.86 in - South 3.5 mph - N/A   Clear